Weather History for KRPH - July, 2013

Change the Weather History Date:

Monday, July 22, 2013

  Actual Average (KMWL) Record (KMWL)
Temperature  
Mean Temperature 86 °F -  
Max Temperature 97 °F 95 °F 105 °F (2001)
Min Temperature 75 °F 71 °F 69 °F (2007)
Cooling Degree Days 21    
Growing Degree Days 36 (Base 50)    
Moisture  
Dew Point 69 °F    
Average Humidity 59    
Maximum Humidity 85    
Minimum Humidity 37    
Precipitation  
Precipitation 0.00 in - - ()
Sea Level Pressure  
Sea Level Pressure 29.91 in    
Wind  
Wind Speed 6 mph (SSE)    
Max Wind Speed 12 mph    
Max Gust Speed 18 mph    
Visibility 10 miles    
Events Rain    
Averages and records for this station are not official NWS values.
T = Trace of Precipitation, MM = Missing Value Source: NWS Daily Summary

Daily Weather History Graph

Daily Weather History Graph

Search for Another Location

Airport or City:

Trip Planner

Search our weather history database for the weather conditions in past years. The results will help you decide how hot, cold, wet, or windy it might be!

Date:

Astronomy

Jul. 22, 2013 Rise Set
Actual Time 6:40 AM CDT 8:40 PM CDT
Civil Twilight 6:13 AM CDT 9:07 PM CDT
Nautical Twilight 5:39 AM CDT 9:41 PM CDT
Astronomical Twilight 5:03 AM CDT 10:17 PM CDT
Moon 8:32 PM CDT (7/22) 6:35 AM CDT (7/22)
Length of Visible Light 14h 54m
Length of Day
13h 59m
Full, 100% of the Moon is Illuminated
Jul 22
Full
Jul 22
Full
Jul 29
Last Quarter
Aug 6
New
Aug 14
First Quarter

Hourly Weather History & Observations

Time (CDT) Temp. Heat Index Dew Point Humidity Pressure Visibility Wind Dir Wind Speed Gust Speed Precip Events Conditions
12:15 AM 82.4 °F 85.2 °F 67.8 °F 61% 29.90 in 10.0 mi South 6.9 mph - N/A   Clear
12:35 AM 81.9 °F 84.8 °F 68.0 °F 63% 29.90 in 10.0 mi South 5.8 mph - N/A   Clear
12:55 AM 81.5 °F 84.2 °F 68.0 °F 63% 29.91 in 10.0 mi South 5.8 mph - N/A   Clear
1:15 AM 80.6 °F 83.2 °F 68.0 °F 65% 29.91 in 10.0 mi South 5.8 mph - N/A   Clear
1:35 AM 79.9 °F - 68.2 °F 67% 29.90 in 10.0 mi South 5.8 mph - N/A   Clear
1:55 AM 79.5 °F - 68.2 °F 68% 29.90 in 10.0 mi South 5.8 mph - N/A   Clear
2:15 AM 79.3 °F - 68.0 °F 68% 29.90 in 10.0 mi South 5.8 mph - N/A   Clear
2:35 AM 78.8 °F - 68.0 °F 69% 29.90 in 10.0 mi SSE 4.6 mph - N/A   Clear
2:55 AM 78.3 °F - 68.2 °F 71% 29.90 in 10.0 mi South 3.5 mph - N/A   Clear
3:15 AM 77.9 °F - 68.5 °F 73% 29.90 in 10.0 mi South 4.6 mph - N/A   Clear
3:35 AM 77.9 °F - 68.9 °F 74% 29.90 in 10.0 mi SSE 4.6 mph - N/A   Clear
3:55 AM 77.4 °F - 69.1 °F 76% 29.90 in 10.0 mi SSE 4.6 mph - N/A   Clear
4:15 AM 77.0 °F - 69.3 °F 77% 29.91 in 10.0 mi SSE 4.6 mph - N/A   Clear
4:35 AM 76.5 °F - 69.6 °F 79% 29.91 in 10.0 mi SSE 5.8 mph - N/A   Clear
4:55 AM 76.5 °F - 69.8 °F 80% 29.91 in 10.0 mi SSE 5.8 mph - N/A   Clear
5:15 AM 76.3 °F - 70.0 °F 81% 29.91 in 10.0 mi SSE 4.6 mph - N/A   Clear
5:35 AM 76.1 °F - 70.3 °F 82% 29.92 in 10.0 mi SSE 4.6 mph - N/A   Clear
5:55 AM 76.1 °F - 70.7 °F 83% 29.92 in 10.0 mi SSE 4.6 mph - N/A   Clear
6:15 AM 75.7 °F - 70.7 °F 84% 29.93 in 10.0 mi SSE 3.5 mph - N/A   Clear
6:35 AM 75.6 °F - 70.7 °F 85% 29.93 in 10.0 mi SSE 4.6 mph - N/A   Clear
6:55 AM 75.6 °F - 70.9 °F 85% 29.93 in 10.0 mi SSE 5.8 mph - N/A   Clear
7:15 AM 76.3 °F - 71.2 °F 84% 29.93 in 10.0 mi SSE 4.6 mph - N/A   Clear
7:35 AM 77.4 °F - 71.6 °F 82% 29.94 in 10.0 mi SSE 4.6 mph - N/A   Clear
7:55 AM 78.6 °F - 71.8 °F 79% 29.94 in 10.0 mi SSE 4.6 mph - N/A   Clear
8:35 AM 80.8 °F 85.1 °F 72.3 °F 75% 29.96 in 10.0 mi South 8.1 mph - N/A   Clear
8:55 AM 81.7 °F 86.5 °F 72.3 °F 73% 29.96 in 10.0 mi South 9.2 mph 16.1 mph N/A   Clear
9:35 AM 84.4 °F 90.3 °F 72.3 °F 67% 29.96 in 10.0 mi South 9.2 mph - N/A   Clear
9:55 AM 84.7 °F 90.7 °F 72.3 °F 66% 29.96 in 10.0 mi SSW 8.1 mph - N/A   Clear
10:15 AM 86.4 °F 93.0 °F 72.3 °F 63% 29.96 in 10.0 mi South 11.5 mph 16.1 mph N/A   Clear
10:35 AM 86.9 °F 93.3 °F 72.0 °F 61% 29.96 in 10.0 mi SSW 10.4 mph 18.4 mph N/A   Clear
10:55 AM 87.8 °F 93.8 °F 71.6 °F 58% 29.96 in 10.0 mi South 10.4 mph 17.3 mph N/A   Clear
11:15 AM 88.9 °F 95.6 °F 72.0 °F 57% 29.96 in 10.0 mi SSW 11.5 mph 16.1 mph N/A   Clear
11:35 AM 89.6 °F 96.2 °F 71.6 °F 55% 29.96 in 10.0 mi SSW 8.1 mph - N/A   Clear
11:55 AM 90.5 °F 97.0 °F 71.1 °F 53% 29.96 in 10.0 mi South 8.1 mph - N/A   Clear
12:15 PM 91.0 °F 97.6 °F 71.1 °F 52% 29.96 in 10.0 mi SSW 6.9 mph - N/A   Clear
12:35 PM 91.8 °F 98.1 °F 70.9 °F 50% 29.95 in 10.0 mi SSW 9.2 mph - N/A   Scattered Clouds
12:55 PM 90.7 °F 96.4 °F 70.5 °F 51% 29.94 in 10.0 mi SSW 8.1 mph 16.1 mph N/A   Scattered Clouds
1:15 PM 93.0 °F 99.5 °F 70.7 °F 48% 29.93 in 10.0 mi South 8.1 mph - N/A   Scattered Clouds
1:35 PM 93.6 °F 99.5 °F 70.2 °F 46% 29.93 in 10.0 mi South 8.1 mph - N/A   Clear
1:55 PM 94.3 °F 100.4 °F 69.8 °F 45% 29.93 in 10.0 mi SSE 6.9 mph 17.3 mph N/A   Scattered Clouds
2:15 PM 94.5 °F 100.8 °F 70.0 °F 45% 29.93 in 10.0 mi SW 8.1 mph - N/A   Scattered Clouds
2:35 PM 93.9 °F 100.3 °F 70.2 °F 46% 29.92 in 10.0 mi SSE 5.8 mph - N/A   Scattered Clouds
2:55 PM 94.8 °F 100.9 °F 69.8 °F 44% 29.91 in 10.0 mi South 8.1 mph - N/A   Scattered Clouds
3:15 PM 93.6 °F 99.5 °F 70.0 °F 46% 29.90 in 10.0 mi SSE 8.1 mph - N/A Rain Light Rain
3:35 PM 93.7 °F 99.3 °F 69.3 °F 45% 29.90 in 10.0 mi South 5.8 mph - N/A   Scattered Clouds
3:55 PM 95.4 °F 99.7 °F 67.8 °F 40% 29.89 in 10.0 mi SSE 8.1 mph - N/A   Scattered Clouds
4:15 PM 97.0 °F 101.6 °F 67.5 °F 38% 29.88 in 10.0 mi South 9.2 mph - N/A   Scattered Clouds
4:35 PM 96.4 °F 100.6 °F 66.9 °F 38% 29.87 in 10.0 mi SSE 10.4 mph 16.1 mph N/A   Mostly Cloudy
4:55 PM 96.4 °F 100.0 °F 66.6 °F 37% 29.87 in 10.0 mi SSE 6.9 mph - N/A   Scattered Clouds
5:15 PM 95.0 °F 99.5 °F 68.0 °F 41% 29.87 in 10.0 mi SSE 6.9 mph - N/A   Mostly Cloudy
5:35 PM 95.7 °F 100.3 °F 67.6 °F 40% 29.87 in 10.0 mi South 11.5 mph 17.3 mph N/A   Scattered Clouds
5:55 PM 95.9 °F 100.1 °F 67.5 °F 39% 29.86 in 10.0 mi SSE 9.2 mph 16.1 mph N/A   Clear
6:15 PM 94.3 °F 99.3 °F 68.9 °F 43% 29.86 in 10.0 mi South 8.1 mph - N/A   Scattered Clouds
6:35 PM 94.3 °F 98.7 °F 68.0 °F 42% 29.86 in 10.0 mi South 9.2 mph 16.1 mph N/A   Clear
6:55 PM 94.3 °F 98.7 °F 68.2 °F 42% 29.85 in 10.0 mi SSE 11.5 mph 16.1 mph N/A   Clear
7:15 PM 93.6 °F 97.4 °F 67.5 °F 42% 29.85 in 10.0 mi SSE 10.4 mph - N/A   Clear
7:35 PM 93.2 °F 97.2 °F 67.6 °F 43% 29.84 in 10.0 mi South 8.1 mph - N/A   Clear
7:55 PM 92.5 °F 96.4 °F 67.6 °F 44% 29.85 in 10.0 mi SSE 6.9 mph - N/A   Clear
8:15 PM 91.0 °F 94.3 °F 67.1 °F 45% 29.85 in 10.0 mi SSE 3.5 mph - N/A   Clear
8:35 PM 89.4 °F 92.7 °F 67.5 °F 48% 29.86 in 10.0 mi SE 3.5 mph - N/A   Clear
8:55 PM 88.2 °F 91.3 °F 67.3 °F 50% 29.86 in 10.0 mi SE 3.5 mph - N/A   Clear
9:15 PM 86.7 °F 90.3 °F 68.0 °F 54% 29.87 in 10.0 mi SE 4.6 mph - N/A   Clear
9:35 PM 86.5 °F 89.3 °F 66.9 °F 52% 29.88 in 10.0 mi SSE 4.6 mph - N/A   Clear
9:55 PM 86.4 °F 88.7 °F 66.6 °F 51% 29.89 in 10.0 mi SSE 5.8 mph - N/A   Clear
10:15 PM 86.4 °F 88.7 °F 66.6 °F 51% 29.89 in 10.0 mi SSE 5.8 mph - N/A   Clear
10:35 PM 85.5 °F 88.2 °F 67.1 °F 54% 29.90 in 10.0 mi SE 4.6 mph - N/A   Clear
10:55 PM 85.1 °F 87.9 °F 67.3 °F 55% 29.91 in 10.0 mi SE 6.9 mph - N/A   Clear
11:15 PM 85.1 °F 88.2 °F 67.6 °F 56% 29.92 in 10.0 mi SE 5.8 mph - N/A   Clear
11:35 PM 85.3 °F 88.2 °F 67.6 °F 55% 29.92 in 10.0 mi SSE 6.9 mph - N/A   Clear
11:55 PM 85.3 °F 88.5 °F 68.0 °F 56% 29.93 in 10.0 mi SSE 5.8 mph - N/A   Clear